This is the latest recevied weather packets stored in our database for station/object K1BWE-1. If no packets are shown the sender has not sent any weather packets the latest 10 day(s).
| Time | Temp. | Humidity | Pressure | Rain* | Wind** | Luminosity | Snow |
|---|---|---|---|---|---|---|---|
| 1777454739 | 14.44° C | 28% | 1017.8 hPa | 0 mm | - | 0 W/m² | - |
| 1777454435 | 14.44° C | 27% | 1017.7 hPa | 0 mm | - | 0 W/m² | - |
| 1777454132 | 14.44° C | 27% | 1017.8 hPa | 0 mm | - | 0 W/m² | - |
| 1777453828 | 15° C | 27% | 1017.8 hPa | 0 mm | - | 0 W/m² | - |
| 1777453526 | 14.44° C | 27% | 1017.8 hPa | 0 mm | - | 0 W/m² | - |
| 1777453222 | 15° C | 26% | 1017.6 hPa | 0 mm | - | 0 W/m² | - |
| 1777452919 | 14.44° C | 26% | 1017.9 hPa | 0 mm | - | 0 W/m² | - |
| 1777452617 | 14.44° C | 27% | 1017.8 hPa | 0 mm | - | 0 W/m² | - |
| 1777452313 | 15° C | 27% | 1017.7 hPa | 0 mm | - | 0 W/m² | - |
| 1777452009 | 15° C | 26% | 1017.7 hPa | 0 mm | - | 0 W/m² | - |
| 1777451704 | 15.56° C | 25% | 1017.8 hPa | 0 mm | - | 0 W/m² | - |
| 1777451400 | 15.56° C | 26% | 1017.6 hPa | 0 mm | - | 0 W/m² | - |
| 1777451096 | 15.56° C | 24% | 1017.6 hPa | 0 mm | - | 0 W/m² | - |
| 1777450792 | 15° C | 25% | 1017.9 hPa | 0 mm | - | 0 W/m² | - |
| 1777450487 | 15° C | 25% | 1017.8 hPa | 0 mm | - | 0 W/m² | - |
| 1777450184 | 15° C | 26% | 1017.8 hPa | 0 mm | - | 0 W/m² | - |
| 1777449880 | 15° C | 26% | 1017.7 hPa | 0 mm | - | 0 W/m² | - |
| 1777449577 | 15.56° C | 25% | 1017.9 hPa | 0 mm | - | 0 W/m² | - |
| 1777449272 | 15.56° C | 25% | 1017.6 hPa | 0 mm | - | 0 W/m² | - |
| 1777448666 | 16.11° C | 23% | 1018.1 hPa | 0 mm | - | 0 W/m² | - |
| 1777448362 | 15.56° C | 24% | 1018.1 hPa | 0 mm | - | 0 W/m² | - |
| 1777448059 | 16.11° C | 23% | 1018.2 hPa | 0 mm | - | 0 W/m² | - |
| 1777447754 | 16.11° C | 22% | 1017.8 hPa | 0 mm | - | 0 W/m² | - |
| 1777447450 | 16.67° C | 22% | 1017.9 hPa | 0 mm | - | 0 W/m² | - |
| 1777447147 | 16.67° C | 22% | 1017.7 hPa | 0 mm | - | 0 W/m² | - |
* Rain latest hour (hover to see other rain measurements)
** Current wind speed in m/s (hover to see current wind gust speed)